Weather History for Marshfield, WI

Change the Weather History Date:

Sunday, February 3, 2013

  Actual Average Record
Temperature  
Mean Temperature 6 °F -  
Max Temperature 12 °F 22 °F 45 °F (1928)
Min Temperature 1 °F 5 °F -29 °F (1923)
Degree Days  
Heating Degree Days 58    
Moisture  
Dew Point 0 °F    
Average Humidity 72    
Maximum Humidity 87    
Minimum Humidity 56    
Precipitation  
Precipitation 0.00 in - - ()
Sea Level Pressure  
Sea Level Pressure 29.98 in    
Wind  
Wind Speed 8 mph (WNW)    
Max Wind Speed 18 mph    
Max Gust Speed 23 mph    
Visibility 9 miles    
Events Snow    
Averages and records for this station are not official NWS values.
T = Trace of Precipitation, MM = Missing Value Source: NWS Daily Summary

Daily Weather History Graph

Daily Weather History Graph

Search for Another Location

Airport:

Trip Planner

Search our weather history database for the weather conditions in past years. The results will help you decide how hot, cold, wet, or windy it might be!

Date:

Astronomy

Feb. 03, 2013 Rise Set
Actual Time 7:16 AM CST 5:12 PM CST
Civil Twilight 6:46 AM CST 5:43 PM CST
Nautical Twilight 6:11 AM CST 6:18 PM CST
Astronomical Twilight 5:37 AM CST 6:52 PM CST
Moon 12:45 AM CST (2/3) 10:48 AM CST (2/3)
Length of Visible Light 10h 57m
Length of Day
9h 55m
Waning Gibbous, 48% of the Moon is Illuminated
Feb 3
Waning Gibbous
Feb 10
New
Feb 17
First Quarter
Feb 25
Full
Mar 4
Last Quarter

Hourly Weather History & Observations

Time (CST) Temp. Windchill Dew Point Humidity Pressure Visibility Wind Dir Wind Speed Gust Speed Precip Events Conditions
12:32 AM 1.4 °F - -2.2 °F 85% 29.91 in 6.0 mi Calm Calm - 0.00 in   Haze
12:54 AM 1.9 °F - -2.9 °F 80% 30.00 in 7.0 mi Calm Calm - 0.00 in Snow Light Snow
1:54 AM 3.9 °F - -0.0 °F 84% 29.98 in 5.0 mi Calm Calm - 0.00 in Snow Light Snow
2:54 AM 5.0 °F -4.1 °F 1.0 °F 84% 29.96 in 8.0 mi West 4.6 mph - 0.00 in   Overcast
3:54 AM 5.0 °F -5.6 °F 1.9 °F 87% 29.94 in 7.0 mi West 5.8 mph - 0.00 in   Overcast
4:54 AM 7.0 °F -7.5 °F 3.0 °F 84% 29.96 in 5.0 mi WNW 10.4 mph - 0.00 in Snow Light Snow
5:47 AM 6.8 °F -10.0 °F 1.4 °F 79% 29.86 in 7.0 mi WNW 13.8 mph - 0.00 in   Overcast
5:54 AM 7.0 °F -9.8 °F 1.9 °F 80% 29.96 in 6.0 mi WNW 13.8 mph - 0.00 in   Haze
6:15 AM 6.8 °F -11.3 °F 1.4 °F 79% 29.88 in 6.0 mi NW 16.1 mph - N/A   Haze
6:54 AM 7.0 °F -12.1 °F 1.0 °F 77% 29.99 in 7.0 mi NW 18.4 mph - N/A   Overcast
7:54 AM 5.0 °F -12.3 °F -0.0 °F 80% 30.01 in 10.0 mi WNW 13.8 mph - N/A   Clear
8:54 AM 5.0 °F -12.3 °F -0.0 °F 80% 30.01 in 10.0 mi WNW 13.8 mph - N/A   Clear
9:24 AM 6.8 °F -10.7 °F -0.4 °F 72% 29.93 in 9.0 mi WNW 15.0 mph - N/A   Mostly Cloudy
9:54 AM 7.0 °F -12.1 °F -0.0 °F 73% 30.03 in 7.0 mi NW 18.4 mph - N/A   Overcast
10:28 AM 8.6 °F -9.5 °F -0.4 °F 67% 29.93 in 10.0 mi NW 17.3 mph 23.0 mph N/A   Scattered Clouds
10:54 AM 8.1 °F -9.6 °F -0.0 °F 70% 30.03 in 10.0 mi NW 16.1 mph 20.7 mph N/A   Clear
11:54 AM 10.0 °F -5.2 °F 1.0 °F 67% 30.01 in 10.0 mi NW 12.7 mph - N/A   Clear
12:35 PM 12.2 °F -3.7 °F 1.4 °F 62% 29.92 in 10.0 mi WNW 15.0 mph - N/A   Mostly Cloudy
12:49 PM 10.4 °F -6.0 °F 1.4 °F 67% 29.92 in 10.0 mi NW 15.0 mph - N/A   Scattered Clouds
12:54 PM 10.9 °F -4.7 °F 1.9 °F 67% 30.01 in 10.0 mi WNW 13.8 mph 20.7 mph N/A   Scattered Clouds
1:54 PM 12.0 °F -4.0 °F 1.0 °F 61% 30.01 in 10.0 mi NW 15.0 mph - N/A   Partly Cloudy
2:54 PM 12.9 °F -1.6 °F -0.0 °F 56% 30.01 in 10.0 mi WNW 12.7 mph - N/A   Clear
3:54 PM 12.0 °F -2.0 °F -0.0 °F 59% 30.01 in 10.0 mi WNW 11.5 mph - N/A   Clear
4:54 PM 10.0 °F -1.9 °F -2.0 °F 58% 30.01 in 10.0 mi NW 8.1 mph - N/A   Clear
5:54 PM 6.1 °F -4.3 °F -2.9 °F 67% 30.02 in 10.0 mi NW 5.8 mph - N/A   Partly Cloudy
6:54 PM 9.0 °F 0.6 °F -2.0 °F 61% 30.02 in 10.0 mi West 4.6 mph - N/A   Overcast
7:54 PM 9.0 °F 0.6 °F -0.0 °F 67% 30.04 in 10.0 mi West 4.6 mph - N/A   Overcast
8:54 PM 8.1 °F -0.5 °F -0.0 °F 70% 30.04 in 10.0 mi West 4.6 mph - N/A   Mostly Cloudy
9:54 PM 8.1 °F - -0.0 °F 70% 30.04 in 10.0 mi Calm Calm - N/A   Mostly Cloudy
10:54 PM 9.0 °F - 1.0 °F 70% 30.03 in 10.0 mi Calm Calm - N/A   Overcast
11:54 PM 9.0 °F - 1.9 °F 73% 30.03 in 6.0 mi Calm Calm - 0.00 in Snow Light Snow